User: anonymous   Login
Location: Sperry Observatory
(40.6664°N, 74.3236°W)
Time: 09:21:06
(UTC-05:00)
Language:

JAS-2 - Orbit

View from above orbital plane
View from above orbital plane
View from above satellite
View from above satellite

Ground track
Ground track

The orbit data is extracted from the following two-line orbital elements,

1 24278U 96046B   16341.53800436 -.00000016  00000-0  17200-4 0  9994
2 24278  98.5835 244.1823 0351298 116.3046 247.4626 13.53072429  2825
Epoch (UTC): 06 December 2016 12:54:43
Eccentricity: 0.0351298
inclination: 98.5835°
perigee height: 799 km
apogee height: 1322 km
right ascension of ascending node: 244.1823°
argument of perigee: 116.3046°
revolutions per day: 13.53072429
mean anomaly at epoch: 247.4626°
orbit number at epoch: 282

The dashed part of the orbit path shows where the satellite is in the earth's shadow,  

DLR